Tracking 19490 objects as of 23-Jan-2019
HD Live streaming from Space Station
objects crossing your sky now

COSMOS 2246

Track COSMOS 2246 now!
10-day predictions
COSMOS 2246 is classified as:


NORAD ID: 22647
Int'l Code: 1993-030B
Perigee: 1,407.8 km
Apogee: 1,423.0 km
Inclination: 82.6 °
Period: 114.0 minutes
Semi major axis: 7786 km
RCS: 1.0644 m2 (large)
Launch date: May 11, 1993
Source: Commonwealth of Independent States (former USSR) (CIS)
Launch site: PLESETSK MISSILE AND SPACE COMPLEX (PKMTR)
aabbcc
Your satellite tracking list
Your tracking list is empty




NASA's NSSDC Master Catalog

Two Line Element Set (TLE):
1 22647U 93030B   19023.16348654  .00000009  00000-0 -69553-5 0  9991
2 22647  82.5832 243.3227 0009763 293.3820  66.6245 12.63562019185486
Source of the keplerian elements: AFSPC